Hourly Weather Otradino

Today, 30 July, Friday

Time Temperature Precipitation Wind Pressure Humidity
00:00 +21°C° 0 mm 2 mps 739 mmHg 74%
01:00 +21°C° 0 mm 2 mps 739 mmHg 73%
02:00 +21°C° 0 mm 2 mps 739 mmHg 73%
03:00 +22°C° 0 mm 1 mps 739 mmHg 72%
04:00 +23°C° 0 mm 1 mps 739 mmHg 72%
05:00 +23°C° 0 mm 1 mps 739 mmHg 72%
06:00 +23°C° 0 mm 1 mps 739 mmHg 72%
07:00 +25°C° 0 mm 1 mps 739 mmHg 66%
08:00 +26°C° 0 mm 2 mps 739 mmHg 61%
09:00 +28°C° 0 mm 2 mps 739 mmHg 55%
10:00 +29°C° 0 mm 3 mps 739 mmHg 52%
11:00 +30°C° 0 mm 4 mps 739 mmHg 49%
12:00 +32°C° 0 mm 4 mps 739 mmHg 46%
13:00 +32°C° 0 mm 5 mps 738 mmHg 46%
14:00 +32°C° 0 mm 5 mps 738 mmHg 46%
15:00 +32°C° 0 mm 6 mps 738 mmHg 46%
16:00 +29°C° 0.8 mm 5 mps 737 mmHg 56%
17:00 +27°C° 0.8 mm 5 mps 737 mmHg 66%
18:00 +23°C° 0.8 mm 4 mps 737 mmHg 76%
19:00 +23°C° 0.8 mm 4 mps 737 mmHg 82%
20:00 +22°C° 0.8 mm 3 mps 737 mmHg 87%
21:00 +21°C° 0.8 mm 3 mps 737 mmHg 92%
22:00 +21°C° 0.5 mm 3 mps 737 mmHg 92%
23:00 +20°C° 0.5 mm 3 mps 737 mmHg 92%

Tomorrow, 31 July, Saturday

Time Temperature Precipitation Wind Pressure Humidity
00:00 +20°C° 0.5 mm 3 mps 737 mmHg 92%
01:00 +20°C° 0.2 mm 3 mps 737 mmHg 93%
02:00 +20°C° 0.2 mm 3 mps 737 mmHg 94%
03:00 +20°C° 0.2 mm 3 mps 737 mmHg 95%
04:00 +20°C° 0 mm 3 mps 738 mmHg 94%
05:00 +20°C° 0 mm 3 mps 738 mmHg 93%
06:00 +20°C° 0 mm 3 mps 738 mmHg 91%
07:00 +22°C° 0 mm 3 mps 739 mmHg 82%
08:00 +23°C° 0 mm 4 mps 739 mmHg 72%
09:00 +26°C° 0 mm 4 mps 739 mmHg 62%
10:00 +27°C° 0 mm 4 mps 740 mmHg 56%
11:00 +28°C° 0 mm 4 mps 740 mmHg 50%
12:00 +29°C° 0 mm 4 mps 740 mmHg 44%
13:00 +30°C° 0 mm 4 mps 740 mmHg 42%
14:00 +30°C° 0 mm 4 mps 740 mmHg 39%
15:00 +30°C° 0 mm 4 mps 740 mmHg 37%
16:00 +30°C° 0 mm 4 mps 740 mmHg 41%
17:00 +29°C° 0 mm 3 mps 740 mmHg 45%
18:00 +29°C° 0 mm 2 mps 740 mmHg 49%
19:00 +27°C° 0 mm 3 mps 740 mmHg 51%
20:00 +26°C° 0 mm 3 mps 740 mmHg 54%
21:00 +24°C° 0 mm 3 mps 740 mmHg 57%
22:00 +24°C° 0 mm 2 mps 741 mmHg 58%
23:00 +23°C° 0 mm 2 mps 741 mmHg 58%

Day after tomorrow, 1 August, Sunday

Time Temperature Precipitation Wind Pressure Humidity
00:00 +23°C° 0 mm 1 mps 741 mmHg 58%
01:00 +22°C° 0 mm 1 mps 741 mmHg 60%
02:00 +22°C° 0 mm 1 mps 742 mmHg 61%
03:00 +21°C° 0 mm 1 mps 742 mmHg 62%
04:00 +22°C° 0 mm 1 mps 742 mmHg 63%
05:00 +22°C° 0 mm 1 mps 742 mmHg 64%
06:00 +22°C° 0 mm 1 mps 743 mmHg 65%
07:00 +24°C° 0 mm 1 mps 743 mmHg 59%
08:00 +26°C° 0 mm 1 mps 743 mmHg 54%
09:00 +28°C° 0 mm 1 mps 743 mmHg 48%
10:00 +29°C° 0 mm 1 mps 743 mmHg 45%
11:00 +30°C° 0 mm 2 mps 743 mmHg 41%
12:00 +31°C° 0 mm 3 mps 743 mmHg 38%
13:00 +33°C° 0 mm 3 mps 743 mmHg 37%
14:00 +33°C° 0 mm 3 mps 743 mmHg 35%
15:00 +34°C° 0 mm 2 mps 743 mmHg 33%
16:00 +32°C° 0 mm 2 mps 743 mmHg 37%
17:00 +32°C° 0 mm 1 mps 743 mmHg 40%
18:00 +32°C° 0 mm 1 mps 742 mmHg 43%
19:00 +30°C° 0 mm 1 mps 742 mmHg 46%
20:00 +28°C° 0 mm 2 mps 742 mmHg 48%
21:00 +26°C° 0 mm 3 mps 742 mmHg 50%
22:00 +25°C° 0 mm 3 mps 742 mmHg 52%
23:00 +25°C° 0 mm 3 mps 742 mmHg 53%

2 August, Monday

Time Temperature Precipitation Wind Pressure Humidity
00:00 +24°C° 0 mm 3 mps 742 mmHg 55%
01:00 +22°C° 0.1 mm 3 mps 742 mmHg 59%
02:00 +22°C° 0.1 mm 3 mps 742 mmHg 63%
03:00 +21°C° 0.1 mm 3 mps 742 mmHg 66%
04:00 +21°C° 0.1 mm 3 mps 742 mmHg 68%
05:00 +21°C° 0.1 mm 2 mps 742 mmHg 69%
06:00 +23°C° 0.1 mm 2 mps 742 mmHg 70%
07:00 +25°C° 0.1 mm 2 mps 742 mmHg 64%
08:00 +27°C° 0.1 mm 3 mps 742 mmHg 57%
09:00 +29°C° 0.1 mm 3 mps 742 mmHg 51%
10:00 +32°C° 0 mm 4 mps 742 mmHg 44%
11:00 +34°C° 0 mm 4 mps 741 mmHg 37%
12:00 +36°C° 0 mm 5 mps 741 mmHg 31%
13:00 +37°C° 0 mm 5 mps 741 mmHg 27%
14:00 +37°C° 0 mm 5 mps 740 mmHg 23%
15:00 +39°C° 0 mm 5 mps 740 mmHg 19%
16:00 +37°C° 0 mm 4 mps 740 mmHg 24%
17:00 +36°C° 0 mm 3 mps 739 mmHg 28%
18:00 +35°C° 0 mm 3 mps 739 mmHg 32%
19:00 +31°C° 0 mm 3 mps 739 mmHg 35%
20:00 +29°C° 0 mm 3 mps 739 mmHg 37%
21:00 +27°C° 0 mm 3 mps 739 mmHg 39%
22:00 +27°C° 0 mm 3 mps 739 mmHg 41%
23:00 +26°C° 0 mm 3 mps 739 mmHg 42%

3 August, Tuesday

Time Temperature Precipitation Wind Pressure Humidity
00:00 +25°C° 0 mm 3 mps 739 mmHg 44%
01:00 +25°C° 0 mm 3 mps 739 mmHg 45%
02:00 +25°C° 0 mm 3 mps 739 mmHg 46%
03:00 +25°C° 0 mm 3 mps 739 mmHg 48%
04:00 +24°C° 0 mm 2 mps 739 mmHg 54%
05:00 +24°C° 0 mm 2 mps 739 mmHg 61%
06:00 +24°C° 0 mm 1 mps 739 mmHg 67%
07:00 +25°C° 0 mm 2 mps 739 mmHg 63%
08:00 +27°C° 0 mm 2 mps 739 mmHg 58%
09:00 +28°C° 0 mm 2 mps 740 mmHg 54%
10:00 +29°C° 0 mm 3 mps 740 mmHg 53%
11:00 +29°C° 0 mm 4 mps 740 mmHg 52%
12:00 +29°C° 0 mm 5 mps 740 mmHg 51%
13:00 +28°C° 0.1 mm 5 mps 741 mmHg 54%
14:00 +27°C° 0.1 mm 6 mps 741 mmHg 57%
15:00 +26°C° 0.1 mm 6 mps 741 mmHg 60%
16:00 +26°C° 0 mm 5 mps 741 mmHg 62%
17:00 +26°C° 0 mm 4 mps 741 mmHg 64%
18:00 +25°C° 0 mm 3 mps 740 mmHg 67%
19:00 +24°C° 0.2 mm 2 mps 741 mmHg 74%
20:00 +23°C° 0.2 mm 2 mps 741 mmHg 81%
21:00 +22°C° 0.2 mm 1 mps 741 mmHg 88%
22:00 +21°C° 0 mm 1 mps 741 mmHg 89%
23:00 +21°C° 0 mm 1 mps 741 mmHg 90%

4 August, Wednesday

Time Temperature Precipitation Wind Pressure Humidity
00:00 +20°C° 0 mm 1 mps 741 mmHg 92%
01:00 +19°C° 0.1 mm 2 mps 741 mmHg 92%
02:00 +19°C° 0.1 mm 2 mps 741 mmHg 93%
03:00 +18°C° 0.1 mm 3 mps 741 mmHg 94%
04:00 +19°C° 0 mm 2 mps 742 mmHg 92%
05:00 +19°C° 0 mm 2 mps 742 mmHg 91%
06:00 +19°C° 0 mm 2 mps 742 mmHg 90%
07:00 +20°C° 0 mm 3 mps 742 mmHg 80%
08:00 +22°C° 0 mm 3 mps 743 mmHg 71%
09:00 +25°C° 0 mm 3 mps 743 mmHg 61%
10:00 +26°C° 0 mm 4 mps 743 mmHg 55%
11:00 +27°C° 0 mm 4 mps 743 mmHg 50%
12:00 +28°C° 0 mm 4 mps 743 mmHg 44%
13:00 +28°C° 0 mm 4 mps 743 mmHg 43%
14:00 +29°C° 0 mm 3 mps 743 mmHg 41%
15:00 +29°C° 0 mm 3 mps 743 mmHg 39%
16:00 +28°C° 0 mm 3 mps 743 mmHg 44%
17:00 +26°C° 0 mm 3 mps 743 mmHg 49%
18:00 +25°C° 0 mm 3 mps 743 mmHg 54%
19:00 +24°C° 0 mm 3 mps 743 mmHg 57%
20:00 +22°C° 0 mm 3 mps 744 mmHg 60%
21:00 +21°C° 0 mm 2 mps 744 mmHg 63%
22:00 +20°C° 0 mm 2 mps 744 mmHg 66%
23:00 +19°C° 0 mm 2 mps 744 mmHg 68%
Show more